Fremont, MI

2:21 PM EST on November 20, 2019 (GMT -0500)
Fremont

Weather History for KFFX - September, 2019

Change the Weather History Date:

Monday, September 2, 2019

  Actual Average (WUND) Record (WUND)
Temperature  
Mean Temperature 66 °F -  
Max Temperature 77 °F - - (-1)
Min Temperature 55 °F - - (-1)
Cooling Degree Days 1    
Growing Degree Days 16 (Base 50)    
Moisture  
Dew Point 56 °F    
Average Humidity 74    
Maximum Humidity 94    
Minimum Humidity 33    
Precipitation  
Precipitation 0.00 in - - ()
Sea Level Pressure  
Sea Level Pressure 30.06 in    
Wind  
Wind Speed 2 mph ()    
Max Wind Speed 12 mph    
Max Gust Speed -    
Visibility 8.7 miles    
Events      
Averages and records for this station are not official NWS values.
T = Trace of Precipitation, MM = Missing Value Source: Averaged Metar Reports

Daily Weather History Graph

Daily Weather History Graph

Search for Another Location

Airport or City:

Astronomy

Sep. 02, 2019 Rise Set
Actual Time 7:08 AM EDT 8:17 PM EDT
Civil Twilight 6:39 AM EDT 8:47 PM EDT
Nautical Twilight 6:04 AM EDT 9:22 PM EDT
Astronomical Twilight 5:26 AM EDT 9:59 PM EDT
Moon 10:56 AM EDT (9/2) 10:32 PM EDT (9/2)
Length of Visible Light 14h 07m
Length of Day
13h 09m
Waxing Crescent, 15% of the Moon is Illuminated
Sep 2
Waxing Crescent
Sep 5
First Quarter
Sep 14
Full
Sep 21
Last Quarter
Sep 28
New

Hourly Weather History & Observations

Time (EDT) Temp. Dew Point Humidity Pressure Visibility Wind Dir Wind Speed Gust Speed Precip Events Conditions
12:16 AM 58.1 °F 56.1 °F 93% 30.07 in 10.0 mi Calm Calm - N/A   Scattered Clouds
12:35 AM 58.1 °F 56.3 °F 94% 30.07 in 10.0 mi Calm Calm - N/A   Mostly Cloudy
12:36 AM 58.1 °F 56.3 °F 94% 30.07 in 10.0 mi Calm Calm - N/A   Mostly Cloudy
12:59 AM 58.3 °F 56.5 °F 94% 30.06 in 10.0 mi Calm Calm - N/A   Mostly Cloudy
1:17 AM 58.3 °F 56.3 °F 93% 30.07 in 10.0 mi Calm Calm - N/A   Mostly Cloudy
1:35 AM 57.9 °F 55.9 °F 93% 30.06 in 10.0 mi Calm Calm - N/A   Scattered Clouds
1:55 AM 56.3 °F 54.5 °F 94% 30.06 in 1.0 mi Calm Calm - N/A   Mist
2:15 AM 56.3 °F 54.5 °F 94% 30.07 in 7.0 mi Calm Calm - N/A   Clear
2:38 AM 56.1 °F 54.3 °F 94% 30.07 in 1.2 mi Calm Calm - N/A   Scattered Clouds
2:56 AM 55.0 °F 53.2 °F 94% 30.06 in 5.0 mi Calm Calm - N/A   Scattered Clouds
3:15 AM 55.8 °F 54.0 °F 94% 30.06 in 10.0 mi Calm Calm - N/A   Mostly Cloudy
3:35 AM 55.9 °F 54.1 °F 94% 30.05 in 7.0 mi Calm Calm - N/A   Scattered Clouds
3:58 AM 55.6 °F 53.6 °F 93% 30.05 in 5.0 mi Calm Calm - N/A   Scattered Clouds
4:16 AM 56.1 °F 54.0 °F 92% 30.05 in 5.0 mi Calm Calm - N/A   Scattered Clouds
4:35 AM 56.7 °F 54.7 °F 93% 30.05 in 7.0 mi Calm Calm - N/A   Overcast
4:36 AM 56.7 °F 54.7 °F 93% 30.05 in 7.0 mi Calm Calm - N/A   Overcast
4:55 AM 57.2 °F 55.2 °F 93% 30.06 in 7.0 mi Calm Calm - N/A   Overcast
4:56 AM 57.2 °F 55.2 °F 93% 30.06 in 7.0 mi Calm Calm - N/A   Overcast
5:19 AM 57.6 °F 55.6 °F 93% 30.05 in 7.0 mi Calm Calm - N/A   Overcast
5:37 AM 57.7 °F 55.9 °F 94% 30.05 in 7.0 mi Calm Calm - N/A   Overcast
5:55 AM 58.3 °F 56.5 °F 94% 30.06 in 10.0 mi Calm Calm - N/A   Overcast
6:15 AM 59.0 °F 57.4 °F 94% 30.05 in 10.0 mi Calm Calm - N/A   Overcast
6:35 AM 59.9 °F 58.3 °F 94% 30.05 in 7.0 mi Calm Calm - N/A   Overcast
6:40 AM 60.1 °F 58.5 °F 94% 30.06 in 7.0 mi Calm Calm - N/A   Overcast
6:58 AM 59.9 °F 58.1 °F 94% 30.06 in 7.0 mi Calm Calm - N/A   Overcast
7:16 AM 59.5 °F 57.7 °F 94% 30.06 in 5.0 mi Calm Calm - N/A   Overcast
7:35 AM 59.2 °F 57.6 °F 94% 30.06 in 5.0 mi Calm Calm - N/A   Overcast
7:55 AM 60.6 °F 58.5 °F 93% 30.06 in 5.0 mi Calm Calm - N/A   Overcast
8:19 AM 61.9 °F 60.1 °F 94% 30.06 in 5.0 mi Calm Calm - N/A   Overcast
8:37 AM 61.9 °F 60.3 °F 94% 30.06 in 5.0 mi Calm Calm - N/A   Overcast
8:55 AM 63.3 °F 61.7 °F 94% 30.07 in 5.0 mi Calm Calm - N/A   Overcast
8:56 AM 63.5 °F 61.7 °F 94% 30.07 in 5.0 mi Calm Calm - N/A   Overcast
9:15 AM 64.9 °F 63.3 °F 94% 30.07 in 7.0 mi Calm Calm - N/A   Overcast
9:16 AM 65.1 °F 63.5 °F 94% 30.07 in 7.0 mi Calm Calm - N/A   Overcast
9:35 AM 66.9 °F 64.8 °F 93% 30.07 in 10.0 mi West 3.5 mph - N/A   Overcast
9:58 AM 68.5 °F 64.0 °F 85% 30.07 in 10.0 mi West 8.1 mph - N/A   Overcast
10:16 AM 69.4 °F 63.1 °F 80% 30.06 in 10.0 mi West 6.9 mph - N/A   Overcast
10:35 AM 71.2 °F 59.9 °F 67% 30.06 in 10.0 mi West 5.8 mph - N/A   Mostly Cloudy
10:36 AM 71.4 °F 59.7 °F 66% 30.06 in 10.0 mi West 6.9 mph - N/A   Mostly Cloudy
10:55 AM 72.1 °F 57.6 °F 60% 30.07 in 10.0 mi West 9.2 mph - N/A   Overcast
11:19 AM 72.3 °F 58.3 °F 61% 30.07 in 10.0 mi WNW 6.9 mph - N/A   Overcast
11:37 AM 73.2 °F 57.7 °F 58% 30.07 in 10.0 mi West 6.9 mph - N/A   Overcast
11:55 AM 73.4 °F 57.2 °F 57% 30.07 in 10.0 mi West 9.2 mph - N/A   Overcast
11:56 AM 73.4 °F 57.0 °F 56% 30.08 in 10.0 mi West 9.2 mph - N/A   Overcast
12:15 PM 73.6 °F 56.3 °F 55% 30.08 in 10.0 mi West 8.1 mph - N/A   Overcast
12:16 PM 73.6 °F 56.1 °F 54% 30.08 in 10.0 mi WNW 9.2 mph - N/A   Overcast
12:35 PM 74.1 °F 56.3 °F 54% 30.08 in 10.0 mi West 9.2 mph - N/A   Overcast
12:58 PM 76.5 °F 54.9 °F 47% 30.08 in 10.0 mi West 10.4 mph - N/A   Mostly Cloudy
1:16 PM 75.9 °F 54.7 °F 48% 30.07 in 10.0 mi West 8.1 mph - N/A   Overcast
1:35 PM 75.2 °F 54.7 °F 49% 30.07 in 10.0 mi NW 8.1 mph - N/A   Overcast
1:55 PM 75.7 °F 53.4 °F 46% 30.07 in 10.0 mi WNW 10.4 mph - N/A   Mostly Cloudy
2:19 PM 77.4 °F 48.7 °F 36% 30.07 in 10.0 mi WNW 10.4 mph - N/A   Scattered Clouds
2:37 PM 77.5 °F 47.5 °F 35% 30.07 in 10.0 mi NW 8.1 mph - N/A   Clear
2:55 PM 77.5 °F 48.6 °F 36% 30.06 in 10.0 mi NW 9.2 mph - N/A   Clear
2:56 PM 77.7 °F 48.4 °F 36% 30.06 in 10.0 mi WNW 9.2 mph - N/A   Scattered Clouds
3:15 PM 76.8 °F 48.9 °F 37% 30.06 in 10.0 mi NW 9.2 mph - N/A   Mostly Cloudy
3:35 PM 77.5 °F 46.4 °F 33% 30.06 in 10.0 mi NNW 10.4 mph - N/A   Scattered Clouds
3:58 PM 77.4 °F 46.0 °F 33% 30.06 in 10.0 mi WNW 8.1 mph - N/A   Clear
4:16 PM 77.5 °F 47.5 °F 35% 30.05 in 10.0 mi NW 9.2 mph - N/A   Scattered Clouds
4:35 PM 77.4 °F 47.7 °F 35% 30.05 in 10.0 mi WNW 11.5 mph - N/A   Scattered Clouds
4:55 PM 75.9 °F 47.7 °F 37% 30.06 in 10.0 mi WNW 9.2 mph - N/A   Mostly Cloudy
5:19 PM 73.6 °F 51.1 °F 45% 30.07 in 10.0 mi NNW 9.2 mph - N/A   Overcast
5:37 PM 73.0 °F 53.1 °F 49% 30.07 in 10.0 mi NW 6.9 mph - N/A   Overcast
5:55 PM 73.4 °F 53.1 °F 49% 30.06 in 10.0 mi WNW 8.1 mph - N/A   Overcast
6:15 PM 74.1 °F 52.7 °F 47% 30.07 in 10.0 mi NW 6.9 mph - N/A   Overcast
6:35 PM 72.5 °F 54.0 °F 52% 30.07 in 10.0 mi WNW 6.9 mph - N/A   Overcast
6:58 PM 71.6 °F 53.4 °F 53% 30.06 in 10.0 mi NW 4.6 mph - N/A   Overcast
7:16 PM 71.6 °F 53.1 °F 52% 30.07 in 10.0 mi WNW 6.9 mph - N/A   Overcast
7:35 PM 70.5 °F 54.0 °F 56% 30.07 in 10.0 mi NW 4.6 mph - N/A   Overcast
7:55 PM 68.4 °F 54.7 °F 62% 30.07 in 10.0 mi NW 4.6 mph - N/A   Scattered Clouds
8:37 PM 66.2 °F 54.5 °F 66% 30.08 in 10.0 mi Calm Calm - N/A   Clear
8:55 PM 65.1 °F 54.7 °F 69% 30.08 in 10.0 mi Calm Calm - N/A   Clear
8:56 PM 64.9 °F 54.9 °F 70% 30.07 in 10.0 mi Calm Calm - N/A   Clear
9:15 PM 64.6 °F 54.3 °F 69% 30.07 in 10.0 mi Calm Calm - N/A   Scattered Clouds
9:35 PM 63.5 °F 58.1 °F 83% 30.07 in 10.0 mi Calm Calm - N/A   Overcast
9:58 PM 62.8 °F 58.8 °F 87% 30.07 in 10.0 mi Calm Calm - N/A   Scattered Clouds
10:16 PM 62.2 °F 58.5 °F 87% 30.07 in 10.0 mi Calm Calm - N/A   Mostly Cloudy
10:35 PM 62.6 °F 59.0 °F 88% 30.06 in 10.0 mi Calm Calm - N/A   Mostly Cloudy
10:36 PM 62.6 °F 59.0 °F 88% 30.06 in 10.0 mi Calm Calm - N/A   Mostly Cloudy
10:55 PM 62.2 °F 59.2 °F 90% 30.07 in 10.0 mi Calm Calm - N/A   Mostly Cloudy
11:19 PM 61.9 °F 59.0 °F 90% 30.07 in 10.0 mi Calm Calm - N/A   Mostly Cloudy
11:37 PM 61.9 °F 58.3 °F 88% 30.06 in 10.0 mi ENE 4.6 mph - N/A   Mostly Cloudy
11:55 PM 62.8 °F 59.0 °F 87% 30.05 in 10.0 mi Calm Calm - N/A   Mostly Cloudy
11:56 PM 62.8 °F 59.0 °F 87% 30.05 in 10.0 mi Calm Calm - N/A   Mostly Cloudy